TIME,DELAY(SENSOR),PRES,T(CTD),SAL,OXYGEN,RAWTEMP,T(OPTODE),TCPHASE,FLUOR,BETA(BETA700),BETA(BETA412),BETA(BETA440),CDOM,C(CSC),ED(ED412.40),ED(ED444.00),ED(ED489.70),ED(ED554.30),LU(LU411.80),LU(LU443.40),LU(LU489.60),LU(LU554.10),COMP,TILTX,TILTX(TILTY),CHECK
1354483499,5807,497.7000122070312500,6.3460998535156250,34.1370010375976560,71.4188385009765600,608.0717773437500000,6.3232078552246090,50.0548400878906250,53,105,89,81,80,15101,2147749376,2147421549,2148004123,2147875062,2147633755,2147075657,2148246372,2147200566,3001,4,13,53372
1354483631,5807,485.9299926757812500,6.5062999725341800,34.1263999938964840,77.5020523071289000,602.9025268554688000,6.4904670715332030,49.2478790283203100,52,107,83,80,80,15100,2147749083,2147421211,2148003437,2147872237,2147629961,2147074605,2148246628,2147200978,692,4,13,36856
1354483752,5809,475.2699890136719000,6.6826000213623050,34.1128005981445300,86.5254669189453100,597.6395874023438000,6.6604900360107420,48.1259384155273440,52,104,89,82,80,15102,2147747209,2147420498,2148004032,2147874029,2147632228,2147071954,2148247113,2147202157,573,4,13,12166
1354483876,5808,464.3099975585937500,6.9321999549865720,34.1143989562988300,91.2708663940429700,590.1522216796875000,6.9019279479980470,47.4822502136230500,51,105,87,80,79,15100,2147746523,2147422253,2148005494,2147872923,2147631012,2147076617,2148248155,2147200758,609,4,13,29104
1354484008,5808,453.5000000000000000,7.0447998046875000,34.1148986816406250,96.1529769897461000,586.2703857421875000,7.0268940925598145,46.8903694152832000,51,105,89,79,79,15097,2147748205,2147423360,2148003638,2147873536,2147630317,2147082843,2148243538,2147200448,3331,4,13,28843
1354484155,5808,442.9599914550781000,7.2723999023437500,34.1132011413574200,102.2257003784179700,579.2557983398438000,7.2523651123046875,46.1360511779785160,51,104,92,80,77,15099,2147743442,2147422482,2148000630,2147874660,2147627977,2147080301,2148243867,2147200621,2036,4,13,26119
1354484330,5810,432.2000122070312500,7.4903998374938965,34.1120986938476560,108.6093978881836000,572.4423828125000000,7.4709448814392090,45.3722801208496100,52,105,90,82,76,15100,2147744987,2147421394,2148000877,2147874377,2147628041,2147085750,2148240201,2147202093,2669,4,13,40737
1354484500,5809,420.8599853515625000,7.7698001861572270,34.1082992553710940,113.9801025390625000,563.6348876953125000,7.7528920173645020,44.6932983398437500,51,103,88,80,78,15099,2147743360,2147421549,2148004598,2147874267,2147624402,2147082477,2148244105,2147204141,2293,4,13,48596
1354484643,5811,409.5000000000000000,8.0839004516601560,34.1068992614746100,125.7210998535156200,553.5471191406250000,8.0750093460083000,43.4038391113281250,50,105,89,80,77,15097,2147743122,2147421147,2148001974,2147872996,2147625965,2147088045,2148236516,2147206921,2397,4,13,16421
1354484781,5808,397.0000000000000000,8.3273000717163090,34.0913009643554700,140.8816070556640600,545.0852050781250000,8.3445491790771480,41.9137306213378900,50,104,86,80,75,15101,2147741129,2147420169,2148001746,2147870747,2147620498,2147087954,2148231424,2147203117,1379,4,13,34927
1354484890,5808,385.5799865722656000,8.6541996002197270,34.0914001464843750,149.1242065429687500,533.1696166992188000,8.7231216430664060,41.0196304321289060,50,106,88,79,74,15098,2147741165,2147421220,2148004653,2147873792,2147624585,2147082779,2148237376,2147201856,609,4,13,51770
1354485000,5809,374.2000122070312500,9.1575002670288090,34.1138000488281250,161.7931060791015600,519.5697021484375000,9.1538543701171880,39.7858581542968750,50,105,90,80,73,15097,2147737316,2147422144,2148000996,2147875620,2147617590,2147092562,2148232841,2147204708,373,4,12,32879
1354485118,5806,363.4200134277344000,9.3503999710083000,34.1166000366210940,166.0695037841797000,513.7362060546875000,9.3381824493408200,39.3634986877441400,50,104,91,80,73,15098,2147737773,2147421321,2148001782,2147874816,2147619090,2147092918,2148231460,2147205604,2729,4,13,62152
1354485250,5806,352.7000122070312500,9.6224002838134770,34.1193008422851560,167.8117980957031200,505.3138122558594000,9.6038818359375000,39.0888404846191400,49,106,87,80,73,15097,2147735826,2147421805,2148000740,2147874157,2147617956,2147095360,2148228077,2147206829,2796,3,13,7237
1354485395,5807,341.2399902343750000,9.9974002838134770,34.1160011291503900,175.6325073242187500,493.4454956054687500,9.9774341583251950,38.3226814270019500,50,105,91,80,74,15097,2147732370,2147422144,2148001124,2147869659,2147614518,2147094985,2148225298,2147205842,1739,4,13,25312
1354485538,5808,330.7500000000000000,10.1856002807617190,34.1212997436523440,183.4479980468750000,486.0335083007812500,10.2102403640747070,37.6568298339843750,50,103,88,80,73,15097,2147734125,2147422262,2148003593,2147870884,2147614710,2147098660,2148221650,2147206985,1030,3,14,31320
1354485693,5810,319.0899963378906000,10.5740995407104500,34.1248016357421900,189.5471038818359400,474.5490112304687500,10.5702400207519530,37.0592689514160160,49,107,88,80,70,15095,2147730980,2147421211,2148004434,2147874560,2147610240,2147104082,2148222738,2147203446,1333,4,13,2787
1354485813,5809,308.3699951171875000,10.8074998855590820,34.1324005126953100,192.7490997314453000,467.1679077148437500,10.8011798858642580,36.7302017211914060,49,105,88,79,71,15095,2147732681,2147421760,2148004068,2147873225,2147610660,2147104448,2148226496,2147206308,1971,3,13,53791
1354485934,5805,297.8599853515625000,11.3452997207641600,34.1412010192871100,195.7825012207031200,450.7645874023437500,11.3132095336914060,36.2677192687988300,48,107,85,81,70,15095,2147729645,2147421430,2148006747,2147871744,2147607872,2147114267,2148222116,2147209389,1213,3,13,44060
1354486069,5809,286.6400146484375000,11.5315999984741210,34.1553001403808600,200.1098022460937500,443.8598022460937500,11.5282897949218750,35.8861503601074200,49,105,90,80,70,15091,2147731968,2147423552,2148011035,2147871835,2147604992,2147116516,2148221284,2147206098,3522,3,14,2270
1354486200,5805,275.6799926757812500,12.0482997894287110,34.1777992248535160,200.9430999755859400,427.3888854980469000,12.0402803421020500,35.5697288513183600,49,107,87,80,70,15092,2147728502,2147427986,2148015323,2147873545,2147603620,2147115163,2148219446,2147209728,946,4,13,47945
1354486335,5804,264.7000122070312500,12.7325000762939450,34.2094001770019500,202.0814971923828000,404.3843994140625000,12.7530803680419920,35.1360893249511700,49,105,90,81,69,15094,2147726400,2147428955,2148022866,2147871817,2147601664,2147118034,2148217664,2147205083,1536,4,13,43724
1354486489,5809,254.4199981689453000,13.3692998886108400,34.2560005187988300,204.9620971679687500,384.6198120117187500,13.3635797500610350,34.6564788818359400,49,104,86,80,68,15090,2147725266,2147431067,2148029202,2147871771,2147596187,2147128420,2148220342,2147209581,1648,3,13,29109
1354486680,5807,242.5599975585937500,14.2643995285034180,34.3797988891601560,214.4754943847656200,355.4885864257812500,14.2606096267700200,33.6664390563964840,50,105,87,80,68,15093,2147721261,2147437385,2148038646,2147871067,2147591881,2147131894,2148221302,2147208777,769,4,13,30707
1354486823,5808,231.5800018310547000,15.3184995651245120,34.4789009094238300,212.5532073974609400,321.9953002929687500,15.2886104583740230,33.2762985229492200,49,103,89,80,67,15089,2147719350,2147440064,2148050121,2147871040,2147589101,2147145408,2148222747,2147208237,1207,3,14,58052
1354486970,5808,218.3899993896484400,15.7035999298095700,34.5270004272460940,212.7942962646484400,306.1321105957031000,15.7744998931884770,33.0311813354492200,48,102,89,81,67,15086,2147718491,2147455661,2148082998,2147876022,2147586176,2147160082,2148232438,2147212918,1256,2,13,48694
1354487069,5810,207.9900054931640600,16.9465999603271500,34.6324005126953100,210.4235992431640600,267.9953918457031000,16.9407997131347660,32.6146392822265600,50,104,88,79,66,15085,2147722102,2147476178,2148118592,2147873362,2147584109,2147181430,2148243757,2147215296,71,3,13,43738
1354487179,5805,196.3899993896484400,17.2292003631591800,34.6809997558593750,212.0149993896484400,258.1380920410156000,17.2419605255126950,32.3864517211914060,50,103,85,79,66,15085,2147725604,2147508562,2148183332,2147876333,2147582509,2147201563,2148272557,2147216384,2418,2,15,15641
1354487254,5811,189.1900024414062500,18.0146999359130860,34.7845001220703100,213.2359924316406200,232.7855072021484400,18.0162792205810550,31.9645309448242200,49,103,89,81,66,15081,2147729408,2147529801,2148221238,2147872768,2147581814,2147217362,2148286710,2147219044,1644,3,14,18862
1354487309,5808,184.6300048828125000,18.2791004180908200,34.8255996704101560,214.1371002197265600,224.3130950927734400,18.2749996185302730,31.7982597351074220,50,102,85,81,65,15080,2147733248,2147548187,2148255113,2147875739,2147580086,2147227392,2148300681,2147220772,632,3,15,11219
1354487363,5807,180.3999938964843800,18.4297008514404300,34.8487014770507800,215.0182037353515600,219.0227966308593800,18.4365596771240230,31.6774291992187500,50,102,90,80,65,15083,2147738761,2147566006,2148295387,2147876315,2147580525,2147240219,2148319433,2147222656,395,3,15,32601
1354487418,5807,176.2599945068359400,18.8572998046875000,34.8953018188476560,214.1596069335937500,205.3983001708984400,18.8526802062988280,31.5369606018066400,52,102,87,80,65,15081,2147745124,2147591945,2148335570,2147874496,2147583506,2147260269,2148338386,2147225517,440,3,14,23701
1354487473,5808,172.8200073242187500,19.2563991546630860,34.9541015625000000,214.5968017578125000,192.7592010498047000,19.2388000488281250,31.3409404754638670,52,103,88,78,65,15080,2147752786,2147614336,2148375844,2147875702,2147584722,2147272886,2148358272,2147224868,449,3,14,48396
1354487564,5806,168.0000000000000000,19.5778007507324220,35.0141983032226560,216.4161987304687500,181.5984954833984400,19.5798892974853500,31.0930690765380860,55,103,88,80,64,15076,2147765412,2147653540,2148450112,2147875227,2147588982,2147300434,2148390345,2147227958,3205,2,15,7531
1354487641,5809,164.5500030517578000,19.9843006134033200,35.0903015136718750,218.7583007812500000,168.8466033935547000,19.9697799682617200,30.7995605468750000,55,105,87,81,63,15073,2147774144,2147670793,2148474825,2147874496,2147592731,2147316763,2148405824,2147230308,3108,3,15,52224
1354487718,5809,160.4799957275390600,20.1292991638183600,35.1132011413574200,221.1383972167968800,163.8146972656250000,20.1236991882324220,30.6096992492675780,56,106,89,79,62,15074,2147784137,2147693248,2148507584,2147874066,2147598674,2147337133,2148424402,2147234660,123,2,15,61790
1354487794,5807,155.8000030517578000,20.2770996093750000,35.1240005493164060,221.3430023193359400,159.0659027099609400,20.2689990997314450,30.5361804962158200,60,106,88,79,63,15067,2147797796,2147724059,2148554898,2147874066,2147601865,2147359780,2148442724,2147233188,189,2,14,35214
1354487852,5806,152.1300048828125000,20.3750991821289060,35.1273002624511700,221.1390075683593800,155.8894958496093800,20.3662204742431640,30.5042304992675780,61,103,88,79,63,15068,2147813037,2147749924,2148595574,2147873051,2147608886,2147381988,2148464374,2147234358,3031,2,15,499
1354487918,5806,148.0399932861328000,20.4666996002197270,35.1361007690429700,220.9004058837890600,152.8200073242187500,20.4601802825927730,30.4759502410888670,62,106,88,81,64,15062,2147835099,2147787309,2148658221,2147876672,2147618166,2147402377,2148496603,2147242962,2202,2,15,14029
1354487984,5810,143.9400024414062500,20.6418991088867200,35.1455001831054700,220.0458068847656200,146.6396026611328000,20.6494197845459000,30.4377994537353500,67,108,90,80,63,15057,2147859794,2147838482,2148726811,2147877586,2147629613,2147431085,2148528265,2147240658,2002,2,15,10281
1354488050,5807,140.4299926757812500,20.7635993957519530,35.1533012390136700,222.4617004394531200,143.2689056396484400,20.7526607513427730,30.2705001831054700,68,110,86,83,63,15053,2147887469,2147891053,2148808356,2147879158,2147640621,2147461924,2148561417,2147247798,1455,2,15,4631
1354488138,5807,136.6499938964843800,20.7737007141113280,35.1551017761230500,223.7902984619140600,142.6560974121093800,20.7714290618896500,30.1956100463867200,70,109,88,81,61,15048,2147936658,2147951926,2148902509,2147877184,2147660754,2147501174,2148603940,2147248548,760,2,15,50299
1354488240,5808,132.6900024414062500,20.9768009185791000,35.1669006347656250,223.8285980224609400,136.6936950683593800,20.9541301727294920,30.1153297424316400,74,112,89,82,63,15043,2147997568,2148039826,2149024274,2147875748,2147687972,2147554230,2148665682,2147252187,157,3,15,37470
1354488339,5805,128.9100036621093800,21.0758991241455080,35.1834983825683600,224.0207977294922000,133.0596008300781200,21.0655307769775400,30.0580692291259770,80,118,90,81,62,15041,2148076114,2148159789,2149187218,2147881792,2147721298,2147615232,2148737124,2147257462,732,2,15,62115
1354488437,5808,124.3499984741211000,21.2500000000000000,35.1935997009277340,223.6136016845703000,127.2241973876953100,21.2444705963134770,30.0023097991943360,85,112,90,80,63,15035,2148200594,2148335040,2149449984,2147887168,2147772470,2147713984,2148851410,2147270756,964,2,15,56527
1354488517,5808,120.7500000000000000,21.3845996856689450,35.1958999633789060,225.1087951660156200,122.4732971191406200,21.3902206420898440,29.8660907745361330,91,117,91,81,61,15030,2148326610,2148516077,2149703259,2147890450,2147823405,2147810313,2148969737,2147278656,432,2,16,31036
1354488615,5810,117.1600036621093800,21.6926002502441400,35.1940994262695300,226.3318023681640600,113.3601989746093800,21.6699695587158200,29.6876907348632800,97,117,89,81,61,15021,2148494381,2148758290,2150041664,2147896018,2147891483,2147934939,2149111780,2147291757,106,2,15,16014
1354488946,5807,113.2399978637695300,22.0368995666503900,35.2024993896484400,230.3688049316406200,102.0888977050781200,22.0163192749023440,29.3465900421142580,115,117,89,82,62,15001,2149113042,2149527981,2151015012,2147913334,2148126829,2148271789,2149491145,2147326637,2351,2,16,17478
1354489137,5807,108.9899978637695300,22.2464008331298830,35.1994018554687500,233.9109039306640600,94.6456604003906200,22.2452697753906250,29.0835990905761720,127,124,88,82,62,14983,2149846180,2150411227,2152105947,2147929270,2148384557,2148618532,2149875209,2147367643,2175,2,16,7342
1354489238,5807,104.4000015258789000,22.4067001342773440,35.1968994140625000,236.2144927978515600,89.5889205932617200,22.4009208679199220,28.9118995666503900,130,122,89,83,63,14964,2150666121,2151356224,2153195785,2147955017,2148676571,2148970907,2150250706,2147406857,2269,2,16,2825
1354489338,5809,101.4300003051757800,22.8318996429443360,35.2062988281250000,238.8117980957031200,77.5743713378906200,22.7711105346679700,28.6406707763671880,136,121,88,82,62,14964,2151381833,2152161325,2154083501,2147977033,2148926582,2149260370,2150546459,2147439396,2574,2,15,33859
1354489473,5807,98.9000015258789000,23.0209007263183600,35.2069015502929700,241.2805023193359400,69.8543777465820300,23.0092697143554700,28.4319190979003900,126,123,93,83,60,14960,2152667766,2153591149,2155624365,2148009453,2149419035,2149821769,2151111040,2147501668,672,1,15,34025
1354489528,5810,97.2399978637695300,23.1389999389648440,35.1930007934570300,241.8173065185547000,64.4910888671875000,23.1748695373535160,28.3406105041503900,123,120,91,84,61,14968,2153426989,2154398400,2156445714,2148028096,2149709705,2150155090,2151430939,2147536155,82,1,15,23649
1354489594,5808,95.2799987792968800,23.5300006866455080,35.1697006225585940,242.2608032226562500,54.1977310180664060,23.4930400848388670,28.1924190521240230,104,124,93,84,60,14977,2154260873,2155295634,2157349504,2148058715,2150069869,2150558418,2151818761,2147573632,2730,2,16,31138
1354489682,5808,93.4899978637695300,23.5753993988037100,35.1739997863769500,243.2088012695312500,52.0591506958007800,23.5592002868652340,28.1236991882324220,107,122,91,85,60,14975,2154854244,2155896384,2157930066,2148078482,2150327606,2150840320,2152079451,2147606857,2174,2,16,7303
1354489772,5810,90.8700027465820300,23.6667995452880860,35.1769981384277340,243.3370971679687500,48.3895111083984400,23.6727790832519530,28.0724601745605470,103,123,92,84,59,14964,2156219026,2157294454,2159305581,2148130230,2150949357,2151519552,2152702363,2147670665,1680,1,16,51266
1354489827,5807,88.6699981689453100,24.5070991516113280,35.1949005126953100,241.0142974853515600,24.8281593322753900,24.4035797119140620,27.8838691711425780,100,125,90,85,59,14968,2157067209,2158177700,2160152246,2148167177,2151395245,2151995821,2153136000,2147717229,1431,2,16,36252
1354490372,5808,86.8899993896484400,25.1835002899169920,35.2510986328125000,236.5357971191406200,1.0426820516586304,25.1442909240722660,27.7912807464599600,83,125,89,83,57,14965,2158894198,2160167030,2162002185,2148223844,2153211894,2153780973,2154515675,2147839579,942,2,16,9115
1354490426,5808,84.7799987792968800,25.2581005096435550,35.2639007568359400,235.4920959472656200,-2.2807810306549072,25.2480506896972660,27.7975406646728500,79,123,91,83,57,14963,2159684114,2161009270,2162837906,2148273481,2154074038,2154620699,2155138066,2147900269,1447,2,16,58935
1354490481,5811,82.5800018310546900,25.3099994659423830,35.2687988281250000,235.0285034179687500,-3.8450000286102295,25.2969093322753900,27.7994499206542970,74,121,94,84,58,14959,2160550518,2161954148,2163816676,2148334144,2155073837,2155621641,2155886656,2147975533,1135,2,16,54859
1354490536,5809,80.3899993896484400,25.3395004272460940,35.2727012634277340,234.6304016113281200,-4.9142360687255860,25.3303108215332030,27.8043899536132800,71,120,95,84,58,14969,2161884553,2163439835,2165407012,2148421568,2156411840,2156980123,2156963602,2148068507,915,2,16,19574
1354490591,5807,78.3000030517578100,25.3530006408691400,35.2742004394531250,234.4851989746093800,-5.5275321006774900,25.3494701385498050,27.8034305572509770,71,119,92,84,58,14968,2162314953,2163799670,2165691236,2148480768,2157262674,2157736841,2157416969,2148115200,361,1,16,64726
1354490646,5808,76.1100006103515600,25.3596992492675780,35.2742996215820300,234.3760070800781200,-5.6710209846496580,25.3539600372314450,27.8065490722656250,69,118,90,84,57,14961,2163189595,2164689024,2166574921,2148587538,2158436132,2158828269,2158179977,2148190025,3421,1,16,4942
1354490725,5808,72.2600021362304700,25.3593997955322270,35.2747001647949200,234.6656951904297000,-5.6758399009704590,25.3541107177734380,27.7933998107910160,68,120,93,85,56,14957,2165413440,2167082486,2169085339,2148801133,2161096173,2161438948,2160118893,2148377938,3025,1,16,20640
1354490780,5805,68.8499984741211000,25.3593006134033200,35.2741012573242200,234.7285003662109400,-5.6657099723815920,25.3537902832031250,27.7905292510986330,66,120,91,84,57,14959,2167921042,2169802550,2171953572,2149077778,2163808512,2164119158,2162163053,2148591158,2944,1,16,24916
1354490834,5809,65.3600006103515600,25.3586997985839840,35.2742996215820300,234.8912963867187500,-5.6754469871521000,25.3540992736816400,27.7830696105957030,67,121,91,83,57,14960,2170774592,2172882048,2175209965,2149435081,2166872036,2167142912,2164460854,2148834459,2868,1,16,48171
1354490889,5801,61.9199981689453100,25.3584995269775400,35.2747993469238300,234.7723999023437500,-5.6797738075256350,25.3542308807373050,27.7884197235107420,67,119,90,85,58,14955,2174369682,2176782281,2179336356,2149936100,2170664694,2170900534,2167348525,2149165074,2827,1,16,20558
1354490944,5805,58.5800018310546900,25.3582000732421880,35.2747001647949200,234.9456939697265600,-5.6887240409851070,25.3545093536376950,27.7805404663085940,66,120,90,85,58,14955,2178936786,2181804342,2184719497,2150633499,2175294564,2175541467,2170966006,2149583597,2967,1,16,64130
1354490999,5810,55.3600006103515600,25.3591003417968750,35.2745018005371100,235.0744018554687500,-5.7169489860534670,25.3553905487060550,27.7741203308105470,64,121,93,85,56,14954,2183670994,2186894107,2190163026,2151569974,2180250880,2180445604,2174745782,2150072173,2979,1,16,45200
1354491057,5808,52.0000000000000000,25.3586006164550780,35.2747001647949200,235.1139984130859400,-5.7199978828430180,25.3554897308349600,27.7723903656005860,64,123,89,85,56,14950,2188682102,2192273344,2195849161,2152667584,2185527744,2185625014,2178690331,2150610294,2951,2,16,12304
1354491112,5807,48.7599983215332000,25.3602008819580080,35.2746009826660160,235.2518005371093800,-5.7636651992797850,25.3568496704101560,27.7656097412109380,65,119,92,84,58,14951,2194332489,2198315382,2202298358,2154221056,2191370998,2191340763,2183057398,2151283593,2951,1,16,41798
1354491167,5804,45.5699996948242200,25.3600006103515620,35.2746009826660160,235.2935943603515600,-5.7705488204956055,25.3570709228515620,27.7635097503662100,64,121,91,84,58,14951,2200184091,2204632265,2209018121,2155780882,2197917046,2197767826,2187999204,2152011547,2709,1,17,60571
1354491222,5806,42.2999992370605500,25.3593997955322270,35.2742004394531250,235.4107971191406200,-5.7796959877014160,25.3573493957519530,27.7582798004150400,65,121,91,84,56,14950,2213662034,2219842925,2225663433,2159582784,2211594139,2211725842,2199068699,2153709165,2395,1,16,52923
1354491277,5812,38.8600006103515600,25.3598995208740230,35.2745018005371100,235.3948059082031200,-5.8068389892578125,25.3582000732421880,27.7586402893066400,66,121,93,84,57,14949,2217821915,2223804772,2229318153,2162258660,2216306020,2215599259,2201481517,2154490651,2175,1,16,17437
1354491332,5809,35.2400016784668000,25.3624000549316400,35.2748985290527340,235.4864044189453000,-5.8836488723754880,25.3605995178222660,27.7534294128417970,64,120,93,84,59,14948,2235724278,2243799076,2251382628,2169159753,2235019437,2234576905,2216538980,2157252589,2195,1,16,56669
1354491406,5807,30.5100002288818360,25.3621997833251950,35.2748985290527340,235.4295959472656200,-5.9838647842407230,25.3637294769287100,27.7547492980957030,63,121,93,86,57,14943,2258372406,2268222372,2278003337,2181194340,2258010395,2257264777,2234328978,2161359606,2437,2,15,5385
1354491461,5806,27.5300006866455080,25.3624992370605470,35.2747001647949200,235.3141021728515600,-6.0050101280212400,25.3643894195556640,27.7598304748535160,61,122,92,84,57,14947,2259433545,2268741723,2278190820,2185737462,2260410240,2258718226,2234738304,2162285211,2288,2,16,36701
1354491516,5807,24.5400009155273440,25.3614997863769530,35.2751998901367200,235.3746032714843800,-5.9925198554992680,25.3640003204345700,27.7572402954101560,61,119,92,83,59,14944,2266377051,2275812361,2285527424,2193531776,2269334857,2266853293,2240557979,2164519798,2152,1,16,62997
